DW1024 Weather Reports


time (UTC)temp
F
wind
direction
speed
knots
gust
knots
rain 1hr
in
rain 24hr
in
rain mn
in
humidity
%
barometer
mb
20260901224634 56 133 0.0 0.0 0.00 0.00 0.00 90 1023.5
20260901223135 56 133 0.0 0.0 0.00 0.00 0.00 90 1023.4
20260901221634 57 133 0.0 0.0 0.00 0.00 0.00 88 1023.5
20260901220141 58 133 0.0 0.9 0.00 0.00 0.00 89 1023.5
20260901214632 57 133 0.0 0.0 0.00 0.00 0.00 89 1023.6
20260901213135 58 133 0.0 0.0 0.00 0.00 0.00 88 1023.5
20260901211630 58 133 0.0 0.0 0.00 0.00 0.00 87 1023.6
20260901210130 59 133 0.0 0.9 0.00 0.00 0.00 86 1023.4
20260901204630 58 133 0.0 0.0 0.00 0.00 0.00 86 1023.4
20260901203131 59 133 0.0 0.0 0.00 0.00 0.00 85 1023.3
20260901201631 60 133 0.0 0.0 0.00 0.00 0.00 83 1023.2
20260901200130 61 133 0.0 0.9 0.00 0.00 0.00 81 1023.1
20260901194629 61 133 0.0 0.0 0.00 0.00 0.00 79 1023.0
20260901193136 62 133 0.0 0.0 0.00 0.00 0.00 78 1023.0
20260901191630 64 133 0.0 0.0 0.00 0.00 0.00 75 1022.8
20260901190130 65 133 0.0 0.9 0.00 0.00 0.00 73 1022.7
20260901184630 65 133 0.0 0.0 0.00 0.00 0.00 71 1022.5
20260901183136 67 133 0.0 1.7 0.00 0.00 0.00 68 1022.5
20260901181632 67 331 0.0 1.7 0.00 0.00 0.00 66 1022.4
20260901180135 68 331 0.0 0.9 0.00 0.00 0.00 65 1022.3
20260901174629 69 331 0.0 2.6 0.00 0.00 0.00 62 1022.2
20260901173130 71 103 0.0 2.6 0.00 0.00 0.00 59 1022.1
20260901171633 72 33 0.0 1.7 0.00 0.00 0.00 56 1022.1
20260901170129 73 70 0.9 3.5 0.00 0.00 0.00 55 1022.1
20260901164631 74 229 1.7 5.2 0.00 0.00 0.00 53 1022.2
20260901163130 74 254 0.9 2.6 0.00 0.00 0.00 52 1022.1
20260901161630 74 304 1.7 6.1 0.00 0.00 0.00 52 1022.1
20260901160129 76 277 1.7 6.1 0.00 0.00 0.00 49 1022.0
20260901154633 76 209 1.7 7.0 0.00 0.00 0.00 48 1021.8
20260901153128 77 126 1.7 5.2 0.00 0.00 0.00 48 1021.8
20260901151629 78 276 1.7 4.3 0.00 0.00 0.00 48 1022.0
20260901150128 77 315 1.7 7.0 0.00 0.00 0.00 46 1022.0
20260901143130 75 65 0.0 1.7 0.00 0.00 0.00 52 1022.0
20260901141631 73 228 0.9 3.5 0.00 0.00 0.00 55 1022.1
20260901134631 76 234 1.7 8.7 0.00 0.00 0.00 51 1022.2
20260901133127 75 355 2.6 9.6 0.00 0.00 0.00 49 1022.4
20260901131634 75 332 2.6 7.0 0.00 0.00 0.00 49 1022.5
20260901130453 78 245 1.7 7.0 0.00 0.00 0.00 45 1022.6
20260901124956 77 324 1.7 7.0 0.00 0.00 0.00 47 1022.7
20260901123456 75 213 1.7 6.1 0.00 0.00 0.00 52 1022.8
20260901121956 75 164 0.9 5.2 0.00 0.00 0.00 51 1022.8
20260901120453 74 205 1.7 4.3 0.00 0.00 0.00 55 1022.7
20260901111952 76 215 1.7 7.0 0.00 0.00 0.00 52 1023.1
20260901110453 76 315 1.7 6.1 0.00 0.00 0.00 51 1023.2
20260901104956 74 154 1.7 6.1 0.00 0.00 0.00 58 1023.3
20260901103455 73 0 0.9 5.2 0.00 0.00 0.00 55 1023.3
20260901101955 73 245 1.7 7.0 0.00 0.00 0.00 53 1023.4
20260901100456 73 263 1.7 4.3 0.00 0.00 0.00 56 1023.4
20260901093454 72 230 1.7 7.0 0.00 0.00 0.00 55 1023.4
20260901091953 73 209 1.7 6.1 0.00 0.00 0.00 52 1023.4
20260901090453 73 54 0.9 6.1 0.00 0.00 0.00 56 1023.5
20260901084954 71 96 0.9 3.5 0.00 0.00 0.00 59 1023.6
20260901083455 72 227 0.9 6.1 0.00 0.00 0.00 57 1023.7
20260901080453 71 26 0.9 3.5 0.00 0.00 0.00 60 1023.4
20260901074953 70 271 0.9 6.1 0.00 0.00 0.00 64 1023.5
20260901073455 69 167 1.7 3.5 0.00 0.00 0.00 66 1023.5
20260901071953 67 230 0.9 3.5 0.00 0.00 0.00 68 1023.5
20260901064953 64 298 0.9 3.5 0.00 0.00 0.00 75 1023.5
20260901063454 62 198 0.9 3.5 0.00 0.00 0.00 78 1023.4
20260901054953 58 234 0.0 1.7 0.00 0.00 0.00 84 1023.5
20260901051951 56 234 0.0 0.9 0.00 0.00 0.00 86 1023.3
20260901050450 55 234 0.0 0.9 0.00 0.00 0.00 88 1023.1
20260901044950 54 234 0.0 0.0 0.00 0.00 0.00 88 1023.0
20260901043447 54 234 0.0 0.0 0.00 0.00 0.00 88 1023.0
20260901041948 55 234 0.0 0.0 0.00 0.00 0.00 86 1023.0
20260901040447 55 234 0.0 0.0 0.00 0.00 0.00 84 1023.0
20260901033447 58 234 0.0 1.7 0.00 0.00 0.00 79 1022.9
20260901030445 59 219 0.9 2.6 0.00 0.00 0.00 77 1023.0
20260901024946 59 225 0.9 3.5 0.00 0.00 0.00 78 1023.1
20260901023443 60 180 0.0 0.9 0.00 0.00 0.00 78 1023.2
20260901021942 60 180 0.0 0.9 0.00 0.00 0.00 77 1023.1
20260901014945 60 215 0.0 1.7 0.00 0.00 0.00 80 1022.8
20260901013444 60 215 0.0 0.9 0.00 0.00 0.00 80 1022.8
20260901011947 60 215 0.0 1.7 0.00 0.00 0.00 79 1022.8
20260901010445 60 227 0.0 1.7 0.00 0.00 0.00 79 1022.8
20260901004939 60 227 0.0 0.9 0.00 0.00 0.00 79 1022.8
20260901003437 59 227 0.0 0.0 0.00 0.00 0.00 82 1022.7
20260901001936 60 227 0.0 1.7 0.00 0.00 0.00 81 1022.9
20260901000436 59 272 0.0 0.9 0.00 0.00 0.00 80 1022.9
20260831234938 59 272 0.0 2.6 0.00 0.00 0.00 77 1022.8
20260831233436 58 272 0.0 0.9 0.00 0.00 0.00 78 1022.8
20260831231937 59 272 0.0 0.0 0.00 0.00 0.00 77 1022.9
20260831230436 60 272 0.0 2.6 0.00 0.00 0.00 76 1022.9